sat.trackr.live / text

‹ back to catalog

PIESAT-2 11

NORAD 62335 · 2024-241C

PAYLOAD ACTIVE UNKNOWN

§ Identity

Operator
Country
PRC
Launch date
2024-12-16
Launch site
TAISC
Launch vehicle
Mass (kg)
RCS (m²)

External: N2YO · Heavens-Above · Gunter

§ Orbital elements

Epoch: 2026-05-25T04:29:03.723360Z

Period
95.11 min
Inclination
97.5273°
Eccentricity
0.0002421
Mean motion
15.14114537 rev/d
Perigee alt
522.0 km
Apogee alt
525.3 km
Semi-major
6,901.8 km
B*
4.2052e-4
RAAN
92.9844°
Arg perigee
85.5062°
Mean anomaly
274.6447°
Rev number
7,933

§ Raw data

PIESAT-2 111 62335U 24241C   26145.18684865  .00007596  00000+0  42052-3 0  99982 62335  97.5273  92.9844 0002421  85.5062 274.6447 15.14114537 79333

JSON: /api/v1/satellites/62335 · /tle

For live sub-satellite position, see the globe view (requires WebGL).

§ Visibility from observer

Set your observer location to see the next 7 days of passes ≥ 10°. The values pass through the URL so the page stays shareable.

No JS? Fill the form by hand. The geolocation button needs JavaScript.